Погода Казалы

Хотите узнать прогноз погоды Казалы? Тогда Вам сюда: Погода Казалы

Поиск расширенной информации на нашем сайте:

Полезная информация:

Новости сайта



02.01.2020
Опубликован Долгосрочный прогноз погоды по городам России и ближнего зарубежья на январь 2020 года.
Карты: Прогноз на январь и февраль 2020 года, Сравнение прогнозируемой аномалии приземной температуры воздуха на январь 2020 года по разным моделям.




Погода Казалы - сегодня

Время (UTC), дата Ветер
(°,м/с) 
Видим.   Явления Облачность Т
(°С)
Тd
(°С)
f(%) Тe
(°С)
Pmin
(гПа)
dP
(гПа)
Po
(мм)
O2
(г/м3)
Тmin Tmax R s Состояние
почвы
09 22.10.21 260 (З) 20000 м    10/6 600 м кучево-дожд., средняя 
[Cb calv|Ac As]
+8.3 -2.2 48 +7  1029.4  -0.8  766  300           
12 22.10.21 250 (З) 6{16}  20000 м    10/10 600 м кучево-дожд. 
[Cb calv]
+9.5 -3.3 40 +8  1029.7  0.3  766  299           
15 22.10.21 210 (ЮЗ) 20000 м    10/10 600 м кучево-дожд. 
[Cb calv]
+8.6 -1.9 48 +7  1030.1  0.4  766  300    +10.6       
18 22.10.21 200 (Ю) 20000 м    3/0 средняя 
[Ac trans]
+6.9 -2.4 51 +6  1030.5  0.3  767  302    +10.6       
21 22.10.21 190 (Ю) 20000 м    3/0 верхняя 
[Ci fib]
+4 -2.9 61 +2  1030.6  0.1  767  305           
00 23.10.21 200 (Ю) 20000 м    ясно 
+2.5 -2.7 69 +2  1030.4  -0.2  766  306           
03 23.10.21 210 (ЮЗ) 20000 м    4/0 верхняя 
[Ci fib]
+2.8 -2.7 67 +2  1031  0.6  767  306           
06 23.10.21 220 (ЮЗ) 20000 м    ясно 
+11.8 -4.4 32 +11  1031.8  0.9  768  297  +2.5         
09 23.10.21 210 (ЮЗ) 20000 м    ясно 
+15.8 -6 22 +16  1030.4  -1.2  767  293           
12 23.10.21 190 (Ю) 20000 м    ясно 
+14.9 -4.7 25 +15  1029.3  -1.1  766  293           
15 23.10.21 180 (Ю) 20000 м    ясно 
+8.7 -3.6 42 +10  1029.5  766  299    +17.1       
18 23.10.21 170 (Ю) 20000 м    ясно 
+4.8 -4.7 50 +6  1029.1  -0.5  765  304    +17.1       
21 23.10.21 170 (Ю) 20000 м    ясно 
+3.5 -5.5 52 +4  1028.2  -0.9  765  305           
00 24.10.21 170 (Ю) 20000 м    ясно 
+2.8 -5.3 55 +4  1027.7  -0.5  764  305           
03 24.10.21 170 (Ю) 20000 м    ясно 
+1.8 -6.3 55 +3  1027.5  -0.4  764  307           
06 24.10.21 160 (Ю) 20000 м    ясно 
+12.6 -7.1 25 +13  1025.9  -1.1  763  295  +1.4         
09 24.10.21 130 (ЮВ) 20000 м    ясно 
+14.6 -6.4 23 +15  1023.5  -2.4  761  292           
12 24.10.21 120 (ЮВ) 20000 м    ясно 
+17.7 -1.7 27 +19  1021.4  -1.9  760  288           
15 24.10.21 080 (В) 20000 м    ясно 
+10.6 -0.2 47 +11  1021.2  -0.5  760  295    +19.6       
18 24.10.21 080 (В) 20000 м    ясно 
+7.8 -1.2 53 +9  1019.8  -1.4  759  297    +19.6       
21 24.10.21 тихо ()   20000 м    ясно 
+5.1 -1.8 61 +5  1018.4  -1.6  757  300           
00 25.10.21 тихо ()   20000 м    ясно 
+2.8 -4.8 57 +3  1017.6  -0.6  757  302           
03 25.10.21 050 (СВ) 20000 м    4/0 верхняя 
[Ci fib]
+3.6 -1.7 68 +4  1016.8  -1  756  301           
06 25.10.21 090 (В) 20000 м    8/0 верхняя 
[Ci sp]
+10.9 +0.6 49 +12  1015.7  -0.9  756  293  +2.4         
09 25.10.21 080 (В) 20000 м    6/0 верхняя 
[Ci sp]
+17.2 +0.2 32 +18  1013.3  -2.1  754  286           
Время (UTC), дата Ветер
(°,м/с) 
Видим.   Явления Облачность Т
(°С)
Тd
(°С)
f(%) Тe
(°С)
Pmin
(гПа)
dP
(гПа)
Po
(мм)
O2
(г/м3)
Тmin Tmax R s Состояние
почвы

Для получения пояснительной информации подведите курсор к названию столбца.

ПОГОДА Казалы - архив

Всё, что Вы хотите узнать о погоде Казалы - удобно и подробно!

Выберите нужную дату (начиная с 1 января 2019* года) и нажмите кнопку "Найти".
Будут отображены архивные сводки погоды по пункту Казалы, начиная с указанной даты.


Отображать данные в формате CSV (для использования в таблицах Excel)


Внимание! Наш архив погоды предназначен исключительно для личного некоммерческого использования в познавательных целях. Если Вам необходимы официальные справки о состоянии погоды (для производственных, юридических, коммерческих и т.п. целей), обращайтесь в органы Росгидромета.

*Примечание: данная дата относится к архиву по метеостанциям СССР (Россия, СНГ, Балтия).
Архив по метеостанциям Зарубежной Европы и Азии (кроме Китая) хранится 10 дней, по другим регионам земного шара (Китай, Африка, Америка, Австралия, Океания) - 1 день.

Казалы - район местоположения метеостанции


Название, широта, долгота, высота метеостанции:
Казалы (Казалинск) 45.8°ш. 62.1°д. 68 м над ур. моря [Казахстан]

Дополнительная информация

В oтличие oт бoльшинства пoгoдных сайтoв мы публикуем пoдрoбную метеoинфoрмацию в детальнoм прoфессиoнальнoм фoрмате.

Характеристики температуры и влажнoсти вoздуха измеряются на высoте 2 м в тени вдали oт зданий и деревьев.
Скoрoсть ветра измеряется на высoте 10 м (на урoвне рoста челoвека скoрoсть ветра ниже в 1.5-2 раза). Если метеoстанция нахoдится в гoрoде или в лесу, тo скoрoсть ветра занижена на 2-4 м/с пo сравнению с oткрытым местoм. Скoрoсть ветра над акватoриями крупных рек и oзёр, а также на вершинах хoлмoв на 2-5 м/с выше, чем в oбычных услoвиях.
Атмoсфернoе давление в разных тoчках местнoсти мoжет значительнo oтличаться oт давления на метеoстанции, в зависимoсти oт услoвий рельефа (при пoдъёме на 10 м давление пoнижается примернo на 1 мм рт.ст.).